This demonstration page uses our WeatherBlox Daily Observations layout. Learn more.

Left ArrowRight Arrow

Hourly Observations for June 14, 2019

Temp ( °F °C ) Dew Point ( °F °C ) Humidity (%) Winds ( mph kmh ) Pressure ( in mb ) Visibility ( mi km ) Precip ( " mm )
12:51 am 00:51 Clear 84 28.9 20 -6.7 9 9 NNW 13 20 29.69 1005 10 16 0.00 0.00
1:51 am 01:51 Clear 80 26.7 20 -6.7 10 10 NNW 9 15 29.69 1005 10 16 0.00 0.00
2:51 am 02:51 Clear 77 25 18 -7.8 11 11 NNE 5 7 29.70 1006 10 16 0.00 0.00
3:51 am 03:51 Clear 70 21.1 21 -6.1 16 16 ESE 6 9 29.73 1007 10 16 0.00 0.00
4:51 am 04:51 Clear 70 21.1 20 -6.7 15 15 ENE 5 7 29.74 1007 10 16 0.00 0.00
5:51 am 05:51 Sunny 73 22.8 21 -6.1 14 14 E 8 13 29.75 1008 10 16 0.00 0.00
6:51 am 06:51 Sunny 83 28.3 22 -5.6 10 10 E 10 17 29.75 1007 10 16 0.00 0.00
7:51 am 07:51 Sunny 86 30 22 -5.6 9 9 ESE 10 17 29.76 1008 10 16 0.00 0.00
8:51 am 08:51 Sunny 90 32.2 25 -3.9 9 9 VRB 7 11 29.76 1008 10 16 0.00 0.00
9:51 am 09:51 Sunny 94 34.4 19 -7.2 6 6 W 8 13 29.75 1007 10 16 0.00 0.00
10:51 am 10:51 Sunny 96 35.6 16 -8.9 5 5 W 15 24 29.73 1007 10 16 0.00 0.00
11:51 am 11:51 Sunny 99 37.2 14 -10 4 4 W 15 24 29.70 1006 10 16 0.00 0.00
12:51 pm 12:51 Sunny 100 37.8 5 -15 3 3 W 28 44 29.68 1005 10 16 0.00 0.00
1:51 pm 13:51 Mostly Sunny 101 38.3 13 -10.6 4 4 W 24 39 29.67 1005 10 16 0.00 0.00
2:51 pm 14:51 Mostly Sunny 101 38.3 11 -11.7 4 4 WSW 17 28 29.66 1004 10 16 0.00 0.00
3:49 pm 15:49 Mostly Sunny 100 38 12 -11 4 4 WSW 24 39 29.51 999 10 16 0.00 0.00
3:51 pm 15:51 Mostly Sunny 100 37.8 12 -11.1 4 4 WSW 21 33 29.65 1004 10 16 0.00 0.00
4:51 pm 16:51 Mostly Sunny 99 37.2 13 -10.6 4 4 WSW 14 22 29.64 1004 10 16 0.00 0.00
5:51 pm 17:51 Mostly Sunny 97 36.1 15 -9.4 5 5 W 13 20 29.63 1004 10 16 0.00 0.00
6:51 pm 18:51 Mostly Sunny 95 35 18 -7.8 6 6 W 15 24 29.63 1003 10 16 0.00 0.00
7:51 pm 19:51 Clear 90 32.2 17 -8.3 7 7 WNW 14 22 29.64 1004 10 16 0.00 0.00
8:51 pm 20:51 Clear 84 28.9 18 -7.8 8 8 NW 9 15 29.67 1005 10 16 0.00 0.00
9:51 pm 21:51 Clear 81 27.2 18 -7.8 9 9 NW 12 19 29.69 1005 10 16 0.00 0.00
10:51 pm 22:51 Clear 79 26.1 19 -7.2 10 10 WNW 12 19 29.69 1006 10 16 0.00 0.00
11:51 pm 23:51 Clear 80 26.7 21 -6.1 11 11 NW 13 20 29.68 1005 10 16 0.00 0.00

Powered by AerisWeather